Location: C�mpuri de-Sus
(45.9500°N, 22.5500°E)
Time: 03:04:39
(UTC+00:00)

IRS-1C Rocket - Pass Details

Date: 24 October 2021
Orbit: 801 x 805 km, 98.9° (Epoch: 30 November)

Event Time Altitude Azimuth Distance (km) Brightness Sun altitude
Exits shadow 17:04:18 10° 145° (SE) 2,345 6.2 -17.3°
Maximum altitude 17:09:19 54° 69° (ENE) 972 4.2 -18.2°
Drops below altitude 10° 17:14:27 10° 354° (N) 2,393 6.7 -19.1°
Sets 17:16:50 0° 350° (N) 3,329 7.5 -19.5°
